Location: Austin
(30.3000°N, 97.7500°W)
Time: 04:14:15
(UTC-06:00)

USA 59 Rocket - Pass Details

Date: 05 February 2026
Orbit: 369 x 1672 km, 63.3° (Epoch: 14 February)

Event Time Altitude Azimuth Distance (km) Brightness Sun altitude
Rises 06:44:47 0° 228° (SW) 3,127 3.3 -8.0°
Reaches altitude 10° 06:47:42 10° 238° (WSW) 1,990 2.3 -7.3°
Maximum altitude 06:51:29 29° 299° (WNW) 967 0.5 -6.5°
Drops below altitude 10° 06:54:30 10° 2° (N) 1,564 2.0 -5.9°
Sets 06:56:32 0° 15° (NNE) 2,338 3.0 -5.5°
